• în Republica Moldova
  • Lista ţărilor
  • Pe 7 zile
  • Temperatura apei
  • Hartă satelitară
  • Meteo pe hartă
  • Widget-uri
  • user-avatar
    Intrare

    Meteo pe oră la Nachiczewan

    Astăzi, 23 August, Miercuri

    Timp Temperatura Precipitaţii Vânt Presiune Umiditate
    00:00 +30°C° 0 mm 2 m/s 684 mmHg 38%
    01:00 +29°C° 0 mm 2 m/s 684 mmHg 39%
    02:00 +29°C° 0 mm 2 m/s 684 mmHg 40%
    03:00 +28°C° 0 mm 2 m/s 684 mmHg 37%
    04:00 +28°C° 0 mm 2 m/s 684 mmHg 37%
    05:00 +28°C° 0 mm 2 m/s 684 mmHg 37%
    06:00 +28°C° 0 mm 2 m/s 684 mmHg 37%
    07:00 +30°C° 0 mm 2 m/s 685 mmHg 32%
    08:00 +32°C° 0 mm 2 m/s 685 mmHg 28%
    09:00 +35°C° 0 mm 2 m/s 685 mmHg 23%
    10:00 +36°C° 0 mm 2 m/s 686 mmHg 20%
    11:00 +38°C° 0 mm 3 m/s 686 mmHg 18%
    12:00 +40°C° 0 mm 4 m/s 686 mmHg 16%
    13:00 +41°C° 0 mm 4 m/s 685 mmHg 15%
    14:00 +42°C° 0 mm 4 m/s 685 mmHg 14%
    15:00 +42°C° 0 mm 4 m/s 685 mmHg 13%
    16:00 +41°C° 0 mm 4 m/s 685 mmHg 15%
    17:00 +40°C° 0 mm 4 m/s 685 mmHg 17%
    18:00 +40°C° 0 mm 5 m/s 685 mmHg 19%
    19:00 +37°C° 0 mm 4 m/s 685 mmHg 22%
    20:00 +35°C° 0 mm 4 m/s 686 mmHg 26%
    21:00 +33°C° 0 mm 3 m/s 686 mmHg 30%
    22:00 +31°C° 0 mm 3 m/s 686 mmHg 32%
    23:00 +30°C° 0 mm 3 m/s 686 mmHg 33%

    Mâine, 24 August, Joi

    Timp Temperatura Precipitaţii Vânt Presiune Umiditate
    00:00 +29°C° 0 mm 2 m/s 686 mmHg 35%
    01:00 +29°C° 0 mm 2 m/s 687 mmHg 36%
    02:00 +28°C° 0 mm 2 m/s 687 mmHg 38%
    03:00 +28°C° 0 mm 2 m/s 687 mmHg 39%
    04:00 +27°C° 0 mm 2 m/s 687 mmHg 40%
    05:00 +27°C° 0 mm 2 m/s 687 mmHg 40%
    06:00 +27°C° 0 mm 2 m/s 687 mmHg 41%
    07:00 +29°C° 0 mm 2 m/s 688 mmHg 36%
    08:00 +30°C° 0 mm 2 m/s 688 mmHg 32%
    09:00 +32°C° 0 mm 2 m/s 688 mmHg 27%
    10:00 +34°C° 0 mm 2 m/s 688 mmHg 25%
    11:00 +36°C° 0 mm 3 m/s 688 mmHg 22%
    12:00 +37°C° 0 mm 3 m/s 688 mmHg 19%
    13:00 +38°C° 0 mm 3 m/s 688 mmHg 18%
    14:00 +40°C° 0 mm 4 m/s 687 mmHg 17%
    15:00 +41°C° 0 mm 5 m/s 687 mmHg 16%
    16:00 +40°C° 0 mm 5 m/s 687 mmHg 18%
    17:00 +39°C° 0 mm 5 m/s 687 mmHg 19%
    18:00 +37°C° 0 mm 5 m/s 687 mmHg 21%
    19:00 +35°C° 0 mm 4 m/s 687 mmHg 24%
    20:00 +34°C° 0 mm 4 m/s 687 mmHg 28%
    21:00 +31°C° 0 mm 3 m/s 688 mmHg 31%
    22:00 +30°C° 0 mm 2 m/s 688 mmHg 32%
    23:00 +30°C° 0 mm 2 m/s 688 mmHg 33%

    Poimâine, 25 August, Vineri

    Timp Temperatura Precipitaţii Vânt Presiune Umiditate
    00:00 +29°C° 0 mm 2 m/s 688 mmHg 34%
    01:00 +28°C° 0 mm 2 m/s 688 mmHg 34%
    02:00 +28°C° 0 mm 2 m/s 688 mmHg 35%
    03:00 +27°C° 0 mm 2 m/s 688 mmHg 35%
    04:00 +27°C° 0 mm 2 m/s 688 mmHg 35%
    05:00 +27°C° 0 mm 2 m/s 688 mmHg 35%
    06:00 +27°C° 0 mm 2 m/s 688 mmHg 35%
    07:00 +29°C° 0 mm 2 m/s 689 mmHg 31%
    08:00 +30°C° 0 mm 2 m/s 689 mmHg 27%
    09:00 +32°C° 0 mm 2 m/s 689 mmHg 23%
    10:00 +34°C° 0 mm 2 m/s 689 mmHg 21%
    11:00 +35°C° 0 mm 2 m/s 689 mmHg 19%
    12:00 +37°C° 0 mm 2 m/s 688 mmHg 17%
    13:00 +37°C° 0 mm 3 m/s 688 mmHg 16%
    14:00 +38°C° 0 mm 4 m/s 688 mmHg 15%
    15:00 +40°C° 0 mm 4 m/s 687 mmHg 14%
    16:00 +38°C° 0 mm 4 m/s 687 mmHg 15%
    17:00 +37°C° 0 mm 5 m/s 687 mmHg 16%
    18:00 +36°C° 0 mm 5 m/s 687 mmHg 17%
    19:00 +35°C° 0 mm 4 m/s 687 mmHg 19%
    20:00 +33°C° 0 mm 4 m/s 688 mmHg 20%
    21:00 +30°C° 0 mm 3 m/s 688 mmHg 22%
    22:00 +30°C° 0 mm 3 m/s 688 mmHg 23%
    23:00 +29°C° 0 mm 2 m/s 688 mmHg 24%

    26 August, Sâmbătă

    Timp Temperatura Precipitaţii Vânt Presiune Umiditate
    00:00 +28°C° 0 mm 2 m/s 688 mmHg 25%
    01:00 +27°C° 0 mm 2 m/s 688 mmHg 26%
    02:00 +27°C° 0 mm 2 m/s 688 mmHg 27%
    03:00 +26°C° 0 mm 2 m/s 688 mmHg 28%
    04:00 +26°C° 0 mm 2 m/s 688 mmHg 29%
    05:00 +26°C° 0 mm 2 m/s 688 mmHg 30%
    06:00 +25°C° 0 mm 2 m/s 688 mmHg 31%
    07:00 +27°C° 0 mm 2 m/s 689 mmHg 28%
    08:00 +29°C° 0 mm 2 m/s 689 mmHg 24%
    09:00 +30°C° 0 mm 2 m/s 689 mmHg 21%
    10:00 +32°C° 0 mm 2 m/s 689 mmHg 20%
    11:00 +34°C° 0 mm 2 m/s 688 mmHg 18%
    12:00 +35°C° 0 mm 3 m/s 688 mmHg 16%
    13:00 +36°C° 0 mm 3 m/s 688 mmHg 16%
    14:00 +36°C° 0 mm 3 m/s 687 mmHg 15%
    15:00 +37°C° 0 mm 4 m/s 687 mmHg 15%
    16:00 +36°C° 0 mm 4 m/s 687 mmHg 16%
    17:00 +36°C° 0 mm 4 m/s 687 mmHg 17%
    18:00 +35°C° 0 mm 5 m/s 687 mmHg 18%
    19:00 +33°C° 0 mm 4 m/s 687 mmHg 21%
    20:00 +31°C° 0 mm 3 m/s 687 mmHg 24%
    21:00 +29°C° 0 mm 3 m/s 688 mmHg 26%
    22:00 +28°C° 0 mm 3 m/s 688 mmHg 28%
    23:00 +27°C° 0 mm 2 m/s 688 mmHg 30%

    27 August, Duminică

    Timp Temperatura Precipitaţii Vânt Presiune Umiditate
    00:00 +27°C° 0 mm 2 m/s 688 mmHg 31%
    01:00 +26°C° 0 mm 2 m/s 687 mmHg 32%
    02:00 +26°C° 0 mm 2 m/s 687 mmHg 33%
    03:00 +25°C° 0 mm 2 m/s 687 mmHg 34%
    04:00 +25°C° 0 mm 2 m/s 687 mmHg 34%
    05:00 +25°C° 0 mm 2 m/s 687 mmHg 35%
    06:00 +24°C° 0 mm 2 m/s 688 mmHg 35%
    07:00 +26°C° 0 mm 2 m/s 688 mmHg 31%
    08:00 +28°C° 0 mm 2 m/s 688 mmHg 27%
    09:00 +29°C° 0 mm 2 m/s 688 mmHg 23%
    10:00 +31°C° 0 mm 2 m/s 688 mmHg 21%
    11:00 +32°C° 0 mm 2 m/s 687 mmHg 19%
    12:00 +34°C° 0 mm 3 m/s 687 mmHg 17%
    13:00 +35°C° 0 mm 3 m/s 687 mmHg 16%
    14:00 +36°C° 0 mm 3 m/s 687 mmHg 16%
    15:00 +36°C° 0 mm 4 m/s 686 mmHg 15%
    16:00 +36°C° 0 mm 4 m/s 686 mmHg 17%
    17:00 +35°C° 0 mm 4 m/s 686 mmHg 19%
    18:00 +34°C° 0 mm 5 m/s 686 mmHg 21%
    19:00 +33°C° 0 mm 4 m/s 686 mmHg 24%
    20:00 +30°C° 0 mm 3 m/s 687 mmHg 28%
    21:00 +29°C° 0 mm 3 m/s 687 mmHg 32%
    22:00 +28°C° 0 mm 3 m/s 687 mmHg 34%
    23:00 +27°C° 0 mm 2 m/s 687 mmHg 36%

    28 August, Luni

    Timp Temperatura Precipitaţii Vânt Presiune Umiditate
    00:00 +26°C° 0 mm 2 m/s 687 mmHg 38%
    01:00 +26°C° 0 mm 2 m/s 687 mmHg 39%
    02:00 +25°C° 0 mm 2 m/s 687 mmHg 40%
    03:00 +25°C° 0 mm 2 m/s 687 mmHg 41%
    04:00 +25°C° 0 mm 2 m/s 687 mmHg 41%
    05:00 +25°C° 0 mm 1 m/s 687 mmHg 41%
    06:00 +24°C° 0 mm 1 m/s 687 mmHg 40%
    07:00 +26°C° 0 mm 1 m/s 687 mmHg 36%
    08:00 +28°C° 0 mm 1 m/s 687 mmHg 31%
    09:00 +30°C° 0 mm 1 m/s 687 mmHg 26%
    10:00 +31°C° 0 mm 2 m/s 687 mmHg 24%
    11:00 +32°C° 0 mm 2 m/s 687 mmHg 22%
    12:00 +35°C° 0 mm 3 m/s 687 mmHg 20%
    13:00 +36°C° 0 mm 3 m/s 686 mmHg 19%
    14:00 +36°C° 0 mm 3 m/s 686 mmHg 17%
    15:00 +37°C° 0 mm 4 m/s 685 mmHg 16%
    16:00 +37°C° 0 mm 4 m/s 685 mmHg 17%
    17:00 +36°C° 0 mm 4 m/s 685 mmHg 18%
    18:00 +35°C° 0 mm 4 m/s 685 mmHg 19%
    19:00 +34°C° 0 mm 3 m/s 685 mmHg 22%
    20:00 +31°C° 0 mm 3 m/s 686 mmHg 25%
    21:00 +30°C° 0 mm 2 m/s 686 mmHg 28%
    22:00 +29°C° 0 mm 2 m/s 686 mmHg 29%
    23:00 +28°C° 0 mm 2 m/s 685 mmHg 30%
    Arată mai mult